Regional Weather Roundup
Issued by NWS Sterling, VA

Home | Current Version | Previous Version | Graphics & Text | Print | Product List | Glossary On
Versions: 1 2 3 4 5 6 7 8 9 10 11 12 13 14 15 16 17 18 19 20 21 22 23 24 25 26 27 28 29 30 31 32 33 34 35 36 37 38 39 40 41 42 43 44 45 46 47 48 49 50
000
ASUS41 KLWX 120610
RWRLWX

REGIONAL WEATHER ROUNDUP
NATIONAL WEATHER SERVICE BALTIMORE MD/WASHINGTON DC
200 AM EDT SAT JUL 12 2014

Note: "FAIR" indicates few or no clouds below 12,000 feet
with no significant weather and/or obstructions to visibility.
 TC=TEMPERATURE CELSIUS

 * =Non NWS site. Station does not report precipitation (e.g. rain,
    snow, etc.), thunder, or fog.

DCZ001-MDZ009-015-VAZ040>042-051-053>054-120700-
WASHINGTON METRO

CITY           SKY/WX    TMP DP  RH WIND       PRES   REMARKS
WASHINGTON NAT PTCLDY    76  67  73 S6        30.21F
DULLES         CLEAR     70  67  90 CALM      30.21F
ANDREWS AFB    PTCLDY    71  69  92 S2        30.21F
FT BELVOIR     CLEAR     68  68 100 SE2       30.22S FOG
QUANTICO       CLEAR     74  68  81 CALM      30.22F
COLLEGE PARK*  MOCLDY    72  70  94 CALM      30.20F
LEESBURG*      CLEAR     70  70 100 CALM      30.23S
MANASSAS*        N/A    N/A N/A N/A MISG        N/A
GAITHERSBURG*  CLEAR     70  64  83 CALM      30.26S

$$

MDZ006>007-011-014-120700-
BALTIMORE METRO

CITY           SKY/WX    TMP DP  RH WIND       PRES   REMARKS
BWI AIRPORT    PTCLDY    73  67  81 CALM      30.21F
MD SCIENCE CTR   N/A     77  67  71 MISG      30.21F
MARTIN STATE   CLEAR     73  70  88 E5        30.22F
ANNAPOLIS      MOCLDY    76  69  79 SE9       30.21F
FORT MEADE*    PTCLDY    68  64  88 CALM      30.23F

$$

MDZ012-015-019>023-120700-
MARYLAND EASTERN SHORE

CITY           SKY/WX    TMP DP  RH WIND       PRES   REMARKS
OCEAN CITY     PTCLDY    66  64  93 CALM      30.22S FOG
SALISBURY      CLEAR     68  64  87 CALM      30.23S
BAY BRIDGE AP*   N/A     72  68  88 SE6       30.21F
CAMBRIDGE*     CLEAR     70  64  83 CALM      30.22S
EASTON*        CLEAR     70  70 100 CALM      30.25F

$$

MDZ017>025-120700-
SOUTHERN MARYLAND

CITY           SKY/WX    TMP DP  RH WIND       PRES   REMARKS
PATUXENT RIVER CLEAR     71  68  90 S3        30.21F
ST INIGOES     PTCLDY    71  67  87 SE3       30.21F
LEONARDTOWN*   CLEAR     68  64  88 MISG      30.23F

$$

MDZ003>005-120700-
NORTH CENTRAL MARYLAND

CITY           SKY/WX    TMP DP  RH WIND       PRES   REMARKS
FREDERICK*     CLEAR     68  68 100 CALM      30.24S
HAGERSTOWN APT CLEAR     72  65  78 CALM      30.21F
WESTMINSTER*   PTCLDY    73  66  78 CALM      30.23F

$$

MDZ501>502-120700-
WESTERN MARYLAND

CITY           SKY/WX    TMP DP  RH WIND       PRES   REMARKS
OAKLAND*       CLEAR     63  63 100 SW5       30.30F
CUMBERLAND*    CLEAR     68  63  83 CALM      30.25F

$$

VAZ025>031-120700-
SHENANDOAH VALLEY

CITY           SKY/WX    TMP DP  RH WIND       PRES   REMARKS
WINCHESTER*    CLEAR     66  64  94 CALM      30.22S
STAUNTON*      MOCLDY    67  63  87 CALM      30.26F

$$

WVZ021-048>050-054>055-120700-
EASTERN WEST VIRGINIA PANHANDLE

CITY           SKY/WX    TMP DP  RH WIND       PRES   REMARKS
MARTINSBURG    CLEAR     66  62  87 CALM      30.21F
PETERSBURG*    PTCLDY    63  59  86 CALM      30.24F FOG

$$

VAZ036>039-050-120700-
CENTRAL FOOTHILLS

CITY           SKY/WX    TMP DP  RH WIND       PRES   REMARKS
CHARLOTTESVILL CLOUDY    71  67  87 W3        30.23S
ORANGE*        MOCLDY    68  64  88 CALM      30.23S FOG

$$

VAZ055>057-120700-
NORTH AND CENTRAL PIEDMONT

CITY           SKY/WX    TMP DP  RH WIND       PRES   REMARKS
FREDERICKSBRG* CLEAR     70  69  96 CALM      30.21S
STAFFORD*      CLEAR     65  65 100 CALM      30.26S FOG

$$

NCZ024-NYZ072-PAZ021-071-VAZ022-071-120700-
OTHER REGIONAL OBSERVATIONS

CITY           SKY/WX    TMP DP  RH WIND       PRES   REMARKS
NEW YORK CITY  CLEAR     72  62  71 CALM      30.25F
PHILADELPHIA   PTCLDY    74  60  61 S3        30.23F
PITTSBURGH     CLOUDY    69  61  75 CALM      30.20F
ROANOKE        MOCLDY    69  65  86 CALM      30.27S
RICHMOND       CLEAR     72  69  90 SE3       30.22S
RALEIGH        CLEAR     69  66  90 CALM      30.22S

$$

ANZ530>537-120700-
MARINE OBSERVATIONS

STATION/POSITION TIME  TEMP    WIND        PRES
                       AIR SEA DIR/SP/G
                 (UTC) (F)     (DEG/KT/KT) (MB)
THOMAS PT LIGHT  0600   75 79  130/  9/ 10 1023.4F
BALT KEY BRIDGE  0600   76     140/  8/  9 1022.8F
COVE POINT       0600   74     210/  5/  5 1023.0F
LEWISETTA        0600   73 81  220/  4/  4 1023.0F
SOLOMONS ISLAND  0600      81                N/A
PINEY POINT      0600          210/  7/  8   N/A

$$




USA.gov is the U.S. government's official web portal to all federal, state and local government web resources and services.